This is the latest recevied weather packets stored in our database for station/object AB8Y-13. If no packets are shown the sender has not sent any weather packets the latest 10 day(s).
| Time | Temp. | Humidity | Pressure | Rain* | Wind** | Luminosity | Snow |
|---|---|---|---|---|---|---|---|
| 1777292616 | 10.56° C | 71% | 1020.2 hPa | 0 mm | - | 178 W/m² | - |
| 1777292312 | 10.56° C | 73% | 1020.2 hPa | 0 mm | - | 160 W/m² | - |
| 1777292009 | 10° C | 75% | 1020.4 hPa | 0 mm | - | 139 W/m² | - |
| 1777291706 | 9.44° C | 76% | 1020.4 hPa | 0 mm | - | 116 W/m² | - |
| 1777291403 | 8.89° C | 78% | 1020.5 hPa | 0 mm | - | 98 W/m² | - |
| 1777291099 | 7.78° C | 84% | 1020.4 hPa | 0 mm | - | 84 W/m² | - |
| 1777290796 | 7.22° C | 93% | 1020.2 hPa | 0 mm | - | 70 W/m² | - |
| 1777290493 | 6.67° C | 96% | 1020.4 hPa | 0 mm | - | 73 W/m² | - |
| 1777290188 | 6.11° C | 96% | 1020.4 hPa | 0 mm | - | 61 W/m² | - |
| 1777289886 | 5.56° C | 96% | 1020.4 hPa | 0 mm | - | 61 W/m² | - |
| 1777289582 | 5° C | 96% | 1020.4 hPa | 0 mm | - | 59 W/m² | - |
| 1777289277 | 4.44° C | 96% | 1020.4 hPa | 0 mm | - | 52 W/m² | - |
| 1777288974 | 4.44° C | 96% | 1020.6 hPa | 0 mm | - | 46 W/m² | - |
| 1777288670 | 3.89° C | 96% | 1020.5 hPa | 0 mm | - | 41 W/m² | - |
| 1777288368 | 3.89° C | 96% | 1020.7 hPa | 0 mm | - | 35 W/m² | - |
| 1777288064 | 3.89° C | 96% | 1020.7 hPa | 0 mm | - | 30 W/m² | - |
| 1777287761 | 3.33° C | 96% | 1020.5 hPa | 0 mm | - | 24 W/m² | - |
| 1777287458 | 3.33° C | 96% | 1020.6 hPa | 0 mm | - | 19 W/m² | - |
| 1777287152 | 3.33° C | 96% | 1020.4 hPa | 0 mm | - | 14 W/m² | - |
| 1777286850 | 3.33° C | 96% | 1020.4 hPa | 0 mm | - | 10 W/m² | - |
| 1777286548 | 2.78° C | 95% | 1020.5 hPa | 0 mm | - | 6 W/m² | - |
| 1777286245 | 3.33° C | 95% | 1020.4 hPa | 0 mm | - | 4 W/m² | - |
| 1777285941 | 3.33° C | 96% | 1020.4 hPa | 0 mm | - | 2 W/m² | - |
| 1777285638 | 3.33° C | 96% | 1020.3 hPa | 0 mm | - | 1 W/m² | - |
| 1777285337 | 3.33° C | 95% | 1020.4 hPa | 0 mm | - | 1 W/m² | - |
* Rain latest hour (hover to see other rain measurements)
** Current wind speed in m/s (hover to see current wind gust speed)